When you browse on this site, cookies collect data to enhance your experience and personalize the content and advertising you see.
Visit our Privacy Policy to learn more. By continuing to use the site, you agree to this use of cookies and data.
  • In Portugal
  • List of Countries
  • For 7 days
  • Water Temperature
  • Satellite Maps
  • Weather Map
  • Weather Widgets
  • user-avatar
    Login

    Hourly Weather Rosiejow

    Today, 26 June, Wednesday

    Time Temperature Precipitation Wind Pressure Humidity
    00:00 +23°C° 0 mm 2 mps 748 mmHg 95%
    01:00 +21°C° 0 mm 2 mps 748 mmHg 95%
    02:00 +22°C° 0 mm 1 mps 748 mmHg 95%
    03:00 +22°C° 0 mm 1 mps 748 mmHg 95%
    04:00 +22°C° 0 mm 1 mps 747 mmHg 94%
    05:00 +23°C° 0 mm 1 mps 747 mmHg 89%
    06:00 +25°C° 0 mm 1 mps 747 mmHg 84%
    07:00 +27°C° 0 mm 1 mps 748 mmHg 78%
    08:00 +28°C° 0 mm 1 mps 747 mmHg 72%
    09:00 +30°C° 0 mm 1 mps 747 mmHg 66%
    10:00 +31°C° 0 mm 1 mps 747 mmHg 60%
    11:00 +32°C° 0 mm 2 mps 747 mmHg 56%
    12:00 +34°C° 0 mm 2 mps 747 mmHg 53%
    13:00 +34°C° 0 mm 3 mps 747 mmHg 49%
    14:00 +34°C° 0 mm 3 mps 746 mmHg 50%
    15:00 +34°C° 0 mm 3 mps 745 mmHg 51%
    16:00 +34°C° 0 mm 3 mps 745 mmHg 53%
    17:00 +33°C° 0 mm 3 mps 745 mmHg 59%
    18:00 +30°C° 0 mm 3 mps 744 mmHg 64%
    19:00 +28°C° 0 mm 3 mps 744 mmHg 70%
    20:00 +28°C° 0 mm 4 mps 744 mmHg 72%
    21:00 +27°C° 0 mm 4 mps 744 mmHg 74%
    22:00 +26°C° 0 mm 4 mps 743 mmHg 76%
    23:00 +26°C° 0.1 mm 5 mps 743 mmHg 78%

    Tomorrow, 27 June, Thursday

    Time Temperature Precipitation Wind Pressure Humidity
    00:00 +26°C° 0.1 mm 5 mps 743 mmHg 79%
    01:00 +24°C° 0.1 mm 6 mps 743 mmHg 80%
    02:00 +25°C° 0.8 mm 5 mps 743 mmHg 84%
    03:00 +23°C° 0.8 mm 5 mps 743 mmHg 88%
    04:00 +22°C° 0.8 mm 5 mps 742 mmHg 91%
    05:00 +23°C° 0.2 mm 5 mps 742 mmHg 90%
    06:00 +23°C° 0.2 mm 5 mps 742 mmHg 89%
    07:00 +23°C° 0.2 mm 5 mps 743 mmHg 87%
    08:00 +23°C° 0 mm 6 mps 743 mmHg 80%
    09:00 +24°C° 0 mm 7 mps 743 mmHg 73%
    10:00 +24°C° 0 mm 8 mps 743 mmHg 65%
    11:00 +24°C° 0 mm 8 mps 742 mmHg 59%
    12:00 +26°C° 0 mm 8 mps 742 mmHg 52%
    13:00 +26°C° 0 mm 8 mps 742 mmHg 45%
    14:00 +24°C° 0 mm 8 mps 742 mmHg 47%
    15:00 +24°C° 0 mm 7 mps 742 mmHg 48%
    16:00 +23°C° 0 mm 7 mps 742 mmHg 50%
    17:00 +22°C° 0 mm 6 mps 742 mmHg 56%
    18:00 +21°C° 0 mm 5 mps 742 mmHg 63%
    19:00 +19°C° 0 mm 5 mps 741 mmHg 69%
    20:00 +18°C° 0 mm 4 mps 742 mmHg 72%
    21:00 +17°C° 0 mm 4 mps 742 mmHg 75%
    22:00 +17°C° 0 mm 4 mps 743 mmHg 78%
    23:00 +15°C° 0 mm 4 mps 743 mmHg 82%

    Day after tomorrow, 28 June, Friday

    Time Temperature Precipitation Wind Pressure Humidity
    00:00 +15°C° 0 mm 4 mps 743 mmHg 86%
    01:00 +14°C° 0 mm 4 mps 743 mmHg 90%
    02:00 +14°C° 0 mm 4 mps 743 mmHg 92%
    03:00 +13°C° 0 mm 4 mps 743 mmHg 94%
    04:00 +12°C° 0 mm 4 mps 743 mmHg 96%
    05:00 +14°C° 0 mm 4 mps 744 mmHg 87%
    06:00 +15°C° 0 mm 4 mps 744 mmHg 78%
    07:00 +17°C° 0 mm 3 mps 744 mmHg 68%
    08:00 +18°C° 0 mm 4 mps 744 mmHg 63%
    09:00 +19°C° 0 mm 4 mps 744 mmHg 57%
    10:00 +20°C° 0 mm 4 mps 744 mmHg 52%
    11:00 +21°C° 0 mm 4 mps 744 mmHg 52%
    12:00 +21°C° 0 mm 4 mps 744 mmHg 51%
    13:00 +22°C° 0 mm 4 mps 743 mmHg 51%
    14:00 +22°C° 0.2 mm 4 mps 743 mmHg 55%
    15:00 +22°C° 0.2 mm 5 mps 743 mmHg 60%
    16:00 +21°C° 0.2 mm 5 mps 743 mmHg 64%
    17:00 +20°C° 0.3 mm 4 mps 743 mmHg 70%
    18:00 +19°C° 0.3 mm 4 mps 743 mmHg 76%
    19:00 +18°C° 0.3 mm 3 mps 743 mmHg 82%
    20:00 +17°C° 0 mm 3 mps 743 mmHg 82%
    21:00 +14°C° 0 mm 3 mps 744 mmHg 81%
    22:00 +12°C° 0 mm 3 mps 744 mmHg 81%
    23:00 +12°C° 0 mm 3 mps 744 mmHg 82%

    29 June, Saturday

    Time Temperature Precipitation Wind Pressure Humidity
    00:00 +11°C° 0 mm 3 mps 744 mmHg 83%
    01:00 +10°C° 0 mm 3 mps 744 mmHg 83%
    02:00 +10°C° 0 mm 3 mps 745 mmHg 83%
    03:00 +10°C° 0 mm 3 mps 745 mmHg 82%
    04:00 +9°C° 0 mm 2 mps 745 mmHg 81%
    05:00 +11°C° 0 mm 3 mps 745 mmHg 75%
    06:00 +13°C° 0 mm 3 mps 745 mmHg 69%
    07:00 +15°C° 0 mm 4 mps 745 mmHg 63%
    08:00 +18°C° 0 mm 4 mps 745 mmHg 59%
    09:00 +19°C° 0 mm 4 mps 745 mmHg 56%
    10:00 +21°C° 0 mm 4 mps 745 mmHg 52%
    11:00 +21°C° 0 mm 5 mps 745 mmHg 51%
    12:00 +22°C° 0 mm 5 mps 745 mmHg 50%
    13:00 +23°C° 0 mm 5 mps 745 mmHg 49%
    14:00 +23°C° 0 mm 4 mps 744 mmHg 49%
    15:00 +23°C° 0 mm 4 mps 744 mmHg 50%
    16:00 +25°C° 0 mm 4 mps 744 mmHg 50%
    17:00 +22°C° 0 mm 3 mps 744 mmHg 57%
    18:00 +21°C° 0 mm 2 mps 744 mmHg 62%
    19:00 +21°C° 0 mm 1 mps 744 mmHg 67%
    20:00 +20°C° 0 mm 1 mps 744 mmHg 68%
    21:00 +18°C° 0 mm 1 mps 744 mmHg 70%
    22:00 +16°C° 0 mm 1 mps 745 mmHg 71%
    23:00 +16°C° 0 mm 2 mps 744 mmHg 72%

    30 June, Sunday

    Time Temperature Precipitation Wind Pressure Humidity
    00:00 +15°C° 0 mm 2 mps 744 mmHg 72%
    01:00 +15°C° 0 mm 2 mps 744 mmHg 73%
    02:00 +15°C° 0 mm 2 mps 744 mmHg 74%
    03:00 +15°C° 0 mm 2 mps 744 mmHg 76%
    04:00 +14°C° 0 mm 2 mps 744 mmHg 77%
    05:00 +16°C° 0 mm 2 mps 744 mmHg 73%
    06:00 +19°C° 0 mm 2 mps 744 mmHg 68%
    07:00 +21°C° 0 mm 2 mps 745 mmHg 64%
    08:00 +23°C° 0 mm 2 mps 745 mmHg 58%
    09:00 +25°C° 0 mm 2 mps 745 mmHg 53%
    10:00 +26°C° 0 mm 2 mps 745 mmHg 47%
    11:00 +27°C° 0 mm 2 mps 744 mmHg 46%
    12:00 +28°C° 0 mm 2 mps 744 mmHg 44%
    13:00 +29°C° 0 mm 2 mps 744 mmHg 42%
    14:00 +29°C° 0 mm 2 mps 743 mmHg 43%
    15:00 +29°C° 0 mm 2 mps 743 mmHg 44%
    16:00 +29°C° 0 mm 2 mps 743 mmHg 45%
    17:00 +28°C° 0 mm 2 mps 743 mmHg 53%
    18:00 +26°C° 0 mm 3 mps 742 mmHg 60%
    19:00 +25°C° 0 mm 3 mps 742 mmHg 68%
    20:00 +22°C° 0 mm 3 mps 742 mmHg 71%
    21:00 +21°C° 0 mm 3 mps 742 mmHg 74%
    22:00 +20°C° 0 mm 2 mps 742 mmHg 76%
    23:00 +19°C° 0 mm 2 mps 742 mmHg 79%

    1 July, Monday

    Time Temperature Precipitation Wind Pressure Humidity
    00:00 +19°C° 0 mm 3 mps 742 mmHg 81%
    01:00 +18°C° 0 mm 3 mps 742 mmHg 84%
    02:00 +18°C° 0 mm 3 mps 741 mmHg 84%
    03:00 +18°C° 0 mm 3 mps 741 mmHg 85%
    04:00 +17°C° 0 mm 3 mps 741 mmHg 86%
    05:00 +19°C° 0 mm 3 mps 741 mmHg 79%
    06:00 +21°C° 0 mm 4 mps 741 mmHg 73%
    07:00 +23°C° 0 mm 4 mps 741 mmHg 67%
    08:00 +25°C° 0 mm 4 mps 741 mmHg 64%
    09:00 +27°C° 0 mm 4 mps 741 mmHg 61%
    10:00 +28°C° 0 mm 4 mps 741 mmHg 59%
    11:00 +29°C° 0 mm 4 mps 741 mmHg 56%
    12:00 +30°C° 0 mm 4 mps 741 mmHg 54%
    13:00 +31°C° 0 mm 3 mps 740 mmHg 52%
    14:00 +32°C° 0 mm 4 mps 740 mmHg 52%
    15:00 +33°C° 0 mm 4 mps 739 mmHg 53%
    16:00 +33°C° 0 mm 4 mps 739 mmHg 53%
    17:00 +29°C° 1.5 mm 4 mps 739 mmHg 65%
    18:00 +26°C° 1.5 mm 4 mps 738 mmHg 76%
    19:00 +22°C° 1.5 mm 4 mps 738 mmHg 88%
    20:00 +21°C° 1.1 mm 4 mps 738 mmHg 89%
    21:00 +20°C° 1.1 mm 3 mps 738 mmHg 90%
    22:00 +20°C° 1.1 mm 3 mps 739 mmHg 92%
    23:00 +20°C° 0.7 mm 3 mps 738 mmHg 92%
    Show more